Powrót do katalogu

BREEZE-M DEB

TANK

AktywnyHEO
NORAD 38979·DEBRIS·🇷🇺 Russia

Wystrzelony Nov 2, 2012 z Baikonur Cosmodrome

Loading…

Następne Przeloty (najbliższe 24 godziny)

TLE

ŚwieżeSource: Space-Track

Epoka: Sep 11, 2026, 04:16 UTC

1 38979U 12061C   26254.17792379  .00000134  00000-0  47605-3 0  9993
2 38979  46.9003 153.3005 7100500 119.5070 327.9140  2.27849688113750

Śledź BREEZE-M DEB w czasie rzeczywistym z AllMySat

Download on the App Store